Boonville, MO

2:23 AM CST on February 10, 2016 (GMT -0600)
Viertel Memorial

Weather History for KVER - September, 2012

Change the Weather History Date:

Monday, September 10, 2012

  Actual Average Record
Temperature  
Mean Temperature 66 °F -  
Max Temperature 104 °F 83 °F 104 °F (2012)
Min Temperature 51 °F 58 °F 47 °F (1949)
Growing Degree Days 16 (Base 50)    
Moisture  
Dew Point 51 °F    
Average Humidity 66    
Maximum Humidity 99    
Minimum Humidity 31    
Precipitation  
Precipitation 0.00 in - - ()
Sea Level Pressure  
Sea Level Pressure 30.14 in    
Wind  
Wind Speed 3 mph (SSE)    
Max Wind Speed 12 mph    
Max Gust Speed -    
Visibility 10 miles    
Events      
Averages and records for this station are not official NWS values.
T = Trace of Precipitation, MM = Missing Value Source: NWS Daily Summary

Daily Weather History Graph

Daily Weather History Graph

Search for Another Location

Airport or City:

Trip Planner

Search our weather history database for the weather conditions in past years. The results will help you decide how hot, cold, wet, or windy it might be!

Date:

Astronomy

Sep. 10, 2012 Rise Set
Actual Time 6:48 AM CDT 7:26 PM CDT
Civil Twilight 6:21 AM CDT 7:53 PM CDT
Nautical Twilight 5:49 AM CDT 8:24 PM CDT
Astronomical Twilight 5:16 AM CDT 8:57 PM CDT
Moon 1:11 AM CDT 3:54 PM CDT
Length of Visible Light 13h 31m
Length of Day
12h 38m
Waning Crescent, 30% of the Moon is Illuminated
Sep 10
Waning Crescent
Sep 15
New
Sep 22
First Quarter
Sep 29
Full
Oct 8
Last Quarter

Hourly Weather History & Observations

Time (CDT) Temp. Dew Point Humidity Pressure Visibility Wind Dir Wind Speed Gust Speed Precip Events Conditions
12:15 AM 56.1 °F 54.1 °F 93% 30.16 in 10.0 mi Calm Calm - N/A   Clear
12:35 AM 55.9 °F 54.5 °F 95% 30.16 in 10.0 mi Calm Calm - N/A   Clear
12:55 AM 55.8 °F 54.5 °F 96% 30.16 in 10.0 mi Calm Calm - N/A   Clear
1:15 AM 55.4 °F 53.8 °F 94% 30.16 in 10.0 mi Calm Calm - N/A   Clear
1:35 AM 55.2 °F 53.8 °F 95% 30.16 in 10.0 mi Calm Calm - N/A   Clear
1:55 AM 54.9 °F 53.6 °F 96% 30.15 in 10.0 mi Calm Calm - N/A   Clear
2:15 AM 54.3 °F 53.2 °F 96% 30.16 in 10.0 mi Calm Calm - N/A   Clear
2:35 AM 54.1 °F 53.1 °F 96% 30.16 in 10.0 mi Calm Calm - N/A   Clear
2:55 AM 54.0 °F 52.3 °F 94% 30.16 in 10.0 mi Calm Calm - N/A   Clear
3:15 AM 53.2 °F 52.5 °F 97% 30.16 in 10.0 mi Calm Calm - N/A   Clear
3:35 AM 52.9 °F 52.3 °F 98% 30.16 in 10.0 mi Calm Calm - N/A   Clear
3:55 AM 52.2 °F 51.8 °F 99% 30.16 in 10.0 mi Calm Calm - N/A   Clear
4:15 AM 52.3 °F 52.2 °F 99% 30.16 in 10.0 mi Calm Calm - N/A   Clear
4:35 AM 52.7 °F 52.3 °F 99% 30.16 in 10.0 mi Calm Calm - N/A   Clear
4:55 AM 52.3 °F 51.6 °F 97% 30.17 in 10.0 mi Calm Calm - N/A   Clear
5:15 AM 51.3 °F 50.9 °F 99% 30.17 in 10.0 mi Calm Calm - N/A   Clear
5:35 AM 51.3 °F 51.1 °F 99% 30.18 in 10.0 mi Calm Calm - N/A   Clear
5:55 AM 51.8 °F 51.6 °F 99% 30.18 in 10.0 mi Calm Calm - N/A   Clear
6:15 AM 52.0 °F 51.6 °F 99% 30.18 in 10.0 mi Calm Calm - N/A   Clear
6:55 AM 51.1 °F 50.9 °F 99% 30.19 in 10.0 mi Calm Calm - N/A   Clear
7:15 AM 51.1 °F 50.5 °F 98% 30.20 in 10.0 mi Calm Calm - N/A   Clear
7:35 AM 51.6 °F 51.1 °F 98% 30.21 in 10.0 mi Calm Calm - N/A   Clear
7:55 AM 53.4 °F 52.9 °F 98% 30.21 in 10.0 mi Calm Calm - N/A   Clear
8:15 AM 56.3 °F 55.6 °F 97% 30.21 in 10.0 mi Calm Calm - N/A   Clear
8:35 AM 58.1 °F 55.2 °F 90% 30.21 in 10.0 mi Calm Calm - N/A   Clear
8:55 AM 60.8 °F 55.6 °F 83% 30.21 in 10.0 mi SE 3.5 mph - N/A   Clear
9:15 AM 63.5 °F 56.1 °F 77% 30.22 in 10.0 mi SE 4.6 mph - N/A   Clear
9:35 AM 65.8 °F 57.2 °F 74% 30.21 in 10.0 mi South 5.8 mph - N/A   Clear
9:55 AM 68.0 °F 55.6 °F 64% 30.22 in 10.0 mi South 8.1 mph - N/A   Clear
10:15 AM 70.2 °F 53.8 °F 56% 30.21 in 10.0 mi SSE 6.9 mph - N/A   Clear
10:35 AM 71.6 °F 51.3 °F 49% 30.21 in 10.0 mi SSE 11.5 mph - N/A   Clear
10:55 AM 72.3 °F 50.4 °F 46% 30.21 in 10.0 mi SSE 9.2 mph - N/A   Clear
11:15 AM 72.9 °F 49.1 °F 43% 30.21 in 10.0 mi SSE 11.5 mph - N/A   Clear
11:35 AM 73.8 °F 49.6 °F 43% 30.20 in 10.0 mi SSE 11.5 mph - N/A   Clear
11:55 AM 74.5 °F 49.5 °F 41% 30.18 in 10.0 mi SE 10.4 mph - N/A   Clear
12:15 PM 75.4 °F 48.9 °F 39% 30.18 in 10.0 mi SE 9.2 mph - N/A   Clear
12:35 PM 75.6 °F 49.1 °F 39% 30.17 in 10.0 mi South 6.9 mph - N/A   Clear
12:55 PM 76.1 °F 48.6 °F 38% 30.16 in 10.0 mi SSE 6.9 mph - N/A   Clear
1:15 PM 76.6 °F 47.8 °F 36% 30.16 in 10.0 mi South 10.4 mph - N/A   Clear
1:35 PM 77.0 °F 48.6 °F 37% 30.15 in 10.0 mi SSE 9.2 mph - N/A   Clear
1:55 PM 77.9 °F 48.4 °F 35% 30.14 in 10.0 mi SSW 3.5 mph - N/A   Clear
2:15 PM 78.4 °F 47.3 °F 33% 30.13 in 10.0 mi SSE 8.1 mph - N/A   Clear
2:35 PM 79.0 °F 46.8 °F 32% 30.12 in 10.0 mi SE 6.9 mph - N/A   Clear
2:55 PM 79.2 °F 47.1 °F 32% 30.11 in 10.0 mi SSE 10.4 mph - N/A   Clear
3:15 PM 79.5 °F 46.2 °F 31% 30.11 in 10.0 mi South 8.1 mph - N/A   Clear
3:35 PM 79.9 °F 47.1 °F 32% 30.10 in 10.0 mi SSE 9.2 mph - N/A   Clear
3:55 PM 80.2 °F 48.0 °F 32% 30.10 in 10.0 mi SSE 8.1 mph - N/A   Clear
4:15 PM 80.1 °F 48.0 °F 32% 30.09 in 10.0 mi SSE 8.1 mph - N/A   Clear
4:35 PM 80.2 °F 48.2 °F 32% 30.09 in 10.0 mi SSE 9.2 mph - N/A   Clear
4:55 PM 80.2 °F 47.7 °F 32% 30.09 in 10.0 mi SSE 9.2 mph - N/A   Clear
5:15 PM 79.9 °F 46.4 °F 31% 30.08 in 10.0 mi South 8.1 mph - N/A   Clear
5:35 PM 79.7 °F 46.6 °F 31% 30.08 in 10.0 mi SSE 9.2 mph - N/A   Clear
5:55 PM 79.3 °F 47.1 °F 32% 30.08 in 10.0 mi SSE 9.2 mph - N/A   Clear
6:15 PM 78.8 °F 47.8 °F 34% 30.08 in 10.0 mi SSE 6.9 mph - N/A   Clear
6:35 PM 77.9 °F 48.4 °F 35% 30.08 in 10.0 mi SSE 4.6 mph - N/A   Clear
6:55 PM 76.5 °F 49.5 °F 39% 30.07 in 10.0 mi SSE 6.9 mph - N/A   Clear
7:15 PM 74.1 °F 50.7 °F 44% 30.06 in 10.0 mi SSE 5.8 mph - N/A   Clear
7:35 PM 71.6 °F 51.4 °F 49% 30.06 in 10.0 mi SSE 5.8 mph - N/A   Clear
7:55 PM 70.0 °F 51.6 °F 52% 30.06 in 10.0 mi SSE 4.6 mph - N/A   Clear
8:15 PM 69.1 °F 51.6 °F 54% 30.06 in 10.0 mi SSE 4.6 mph - N/A   Clear
8:55 PM 66.2 °F 52.0 °F 60% 30.07 in 10.0 mi SE 5.8 mph - N/A   Clear
9:15 PM 66.4 °F 51.8 °F 59% 30.07 in 10.0 mi SE 4.6 mph - N/A   Clear
9:35 PM 65.3 °F 52.0 °F 62% 30.07 in 10.0 mi SSE 4.6 mph - N/A   Clear
9:55 PM 64.0 °F 52.3 °F 66% 30.08 in 10.0 mi SSE 6.9 mph - N/A   Clear
10:15 PM 62.8 °F 52.5 °F 69% 30.07 in 10.0 mi SSE 5.8 mph - N/A   Clear
10:35 PM 62.1 °F 52.7 °F 71% 30.08 in 10.0 mi SSE 5.8 mph - N/A   Clear
10:55 PM 61.5 °F 52.7 °F 73% 30.07 in 10.0 mi SSE 4.6 mph - N/A   Clear
11:15 PM 61.2 °F 52.7 °F 74% 30.07 in 10.0 mi SSE 5.8 mph - N/A   Clear
11:35 PM 60.6 °F 52.9 °F 76% 30.07 in 10.0 mi SSE 6.9 mph - N/A   Clear
11:55 PM 59.9 °F 52.7 °F 77% 30.08 in 10.0 mi SSE 5.8 mph - N/A   Clear